owner,sensor,date,latitude,longitude,vertical_datum,mass_concentration_of_oxygen_in_sea_water,qcFlag 
LUMCON,ioos:station:LUMCON:101:1,2019-04-01T00:00:00Z,29.2533,-90.6633,1.881,7.84,1111122 
LUMCON,ioos:station:LUMCON:101:1,2019-04-01T00:15:00Z,29.2533,-90.6633,1.857,7.71,1111122 
LUMCON,ioos:station:LUMCON:101:1,2019-04-01T00:30:00Z,29.2533,-90.6633,1.85,8.02,1111122 
LUMCON,ioos:station:LUMCON:101:1,2019-04-01T00:45:00Z,29.2533,-90.6633,1.885,7.88,1111122 
LUMCON,ioos:station:LUMCON:101:1,2019-04-01T01:00:00Z,29.2533,-90.6633,1.907,7.91,1111122 
LUMCON,ioos:station:LUMCON:101:1,2019-04-01T01:15:00Z,29.2533,-90.6633,1.927,7.97,1111122 
LUMCON,ioos:station:LUMCON:101:1,2019-04-01T01:30:00Z,29.2533,-90.6633,1.922,7.98,1111122 
LUMCON,ioos:station:LUMCON:101:1,2019-04-01T01:45:00Z,29.2533,-90.6633,1.92,7.96,1111122 
LUMCON,ioos:station:LUMCON:101:1,2019-04-01T02:00:00Z,29.2533,-90.6633,1.923,7.85,1111122 
LUMCON,ioos:station:LUMCON:101:1,2019-04-01T02:15:00Z,29.2533,-90.6633,1.93,7.85,1111122 
LUMCON,ioos:station:LUMCON:101:1,2019-04-01T02:30:00Z,29.2533,-90.6633,1.934,7.8,1111122 
LUMCON,ioos:station:LUMCON:101:1,2019-04-01T02:45:00Z,29.2533,-90.6633,1.93,7.78,1111122 
LUMCON,ioos:station:LUMCON:101:1,2019-04-01T03:00:00Z,29.2533,-90.6633,1.92,7.63,1111122 
LUMCON,ioos:station:LUMCON:101:1,2019-04-01T03:15:00Z,29.2533,-90.6633,1.915,7.85,1111122 
LUMCON,ioos:station:LUMCON:101:1,2019-04-01T03:30:00Z,29.2533,-90.6633,1.9,8.1,1111122 
LUMCON,ioos:station:LUMCON:101:1,2019-04-01T03:45:00Z,29.2533,-90.6633,1.908,8.08,1111122 
LUMCON,ioos:station:LUMCON:101:1,2019-04-01T04:00:00Z,29.2533,-90.6633,1.91,7.91,1111122 
LUMCON,ioos:station:LUMCON:101:1,2019-04-01T04:15:00Z,29.2533,-90.6633,1.908,7.95,1111122 
LUMCON,ioos:station:LUMCON:101:1,2019-04-01T04:30:00Z,29.2533,-90.6633,1.911,7.68,1111122 
LUMCON,ioos:station:LUMCON:101:1,2019-04-01T04:45:00Z,29.2533,-90.6633,1.897,7.92,1111122 
LUMCON,ioos:station:LUMCON:101:1,2019-04-01T05:00:00Z,29.2533,-90.6633,1.895,7.92,1111122 
LUMCON,ioos:station:LUMCON:101:1,2019-04-01T05:15:00Z,29.2533,-90.6633,1.902,7.72,1111122 
LUMCON,ioos:station:LUMCON:101:1,2019-04-01T05:30:00Z,29.2533,-90.6633,1.896,7.65,1111122 
LUMCON,ioos:station:LUMCON:101:1,2019-04-01T05:45:00Z,29.2533,-90.6633,1.902,6.86,1111122 
LUMCON,ioos:station:LUMCON:101:1,2019-04-01T06:00:00Z,29.2533,-90.6633,1.881,6.82,1111122 
LUMCON,ioos:station:LUMCON:101:1,2019-04-01T06:15:00Z,29.2533,-90.6633,1.882,7.15,1111122 
LUMCON,ioos:station:LUMCON:101:1,2019-04-01T06:30:00Z,29.2533,-90.6633,1.89,6.82,1111122 
LUMCON,ioos:station:LUMCON:101:1,2019-04-01T06:45:00Z,29.2533,-90.6633,1.883,6.81,1111122 
LUMCON,ioos:station:LUMCON:101:1,2019-04-01T07:00:00Z,29.2533,-90.6633,1.881,6.17,1111122 
LUMCON,ioos:station:LUMCON:101:1,2019-04-01T07:15:00Z,29.2533,-90.6633,1.874,6.5,1111122 
LUMCON,ioos:station:LUMCON:101:1,2019-04-01T07:30:00Z,29.2533,-90.6633,1.869,6.26,1111122 
LUMCON,ioos:station:LUMCON:101:1,2019-04-01T07:45:00Z,29.2533,-90.6633,1.865,7.48,1111122 
LUMCON,ioos:station:LUMCON:101:1,2019-04-01T08:00:00Z,29.2533,-90.6633,1.855,7.6,1111122 
LUMCON,ioos:station:LUMCON:101:1,2019-04-01T08:15:00Z,29.2533,-90.6633,1.853,7.89,1111122 
LUMCON,ioos:station:LUMCON:101:1,2019-04-01T08:30:00Z,29.2533,-90.6633,1.841,8.06,1111122 
LUMCON,ioos:station:LUMCON:101:1,2019-04-01T08:45:00Z,29.2533,-90.6633,1.826,8.12,1111122 
LUMCON,ioos:station:LUMCON:101:1,2019-04-01T09:00:00Z,29.2533,-90.6633,1.81,8.16,1111122 
LUMCON,ioos:station:LUMCON:101:1,2019-04-01T09:15:00Z,29.2533,-90.6633,1.792,8.3,1111122 
LUMCON,ioos:station:LUMCON:101:1,2019-04-01T09:30:00Z,29.2533,-90.6633,1.788,8.43,1111122 
LUMCON,ioos:station:LUMCON:101:1,2019-04-01T09:45:00Z,29.2533,-90.6633,1.784,8.48,1111122 
LUMCON,ioos:station:LUMCON:101:1,2019-04-01T10:00:00Z,29.2533,-90.6633,1.79,8.47,1111122 
LUMCON,ioos:station:LUMCON:101:1,2019-04-01T10:15:00Z,29.2533,-90.6633,1.788,8.47,1111122 
LUMCON,ioos:station:LUMCON:101:1,2019-04-01T10:30:00Z,29.2533,-90.6633,1.786,8.52,1111122 
LUMCON,ioos:station:LUMCON:101:1,2019-04-01T10:45:00Z,29.2533,-90.6633,1.787,8.55,1111122 
LUMCON,ioos:station:LUMCON:101:1,2019-04-01T11:00:00Z,29.2533,-90.6633,1.799,8.39,1111122 
LUMCON,ioos:station:LUMCON:101:1,2019-04-01T11:15:00Z,29.2533,-90.6633,1.794,8.43,1111122 
LUMCON,ioos:station:LUMCON:101:1,2019-04-01T11:30:00Z,29.2533,-90.6633,1.768,8.61,1111122 
LUMCON,ioos:station:LUMCON:101:1,2019-04-01T11:45:00Z,29.2533,-90.6633,1.753,8.53,1111122 
LUMCON,ioos:station:LUMCON:101:1,2019-04-01T12:00:00Z,29.2533,-90.6633,1.75,8.53,1111122 
LUMCON,ioos:station:LUMCON:101:1,2019-04-01T21:30:00Z,29.2533,-90.6633,1.958,9.03,1111122 
LUMCON,ioos:station:LUMCON:101:1,2019-04-01T21:45:00Z,29.2533,-90.6633,1.97,9.09,1111122 
LUMCON,ioos:station:LUMCON:101:1,2019-04-01T22:00:00Z,29.2533,-90.6633,1.977,9.2,1111122 
LUMCON,ioos:station:LUMCON:101:1,2019-04-01T22:15:00Z,29.2533,-90.6633,1.986,9.23,1111122 
LUMCON,ioos:station:LUMCON:101:1,2019-04-01T22:30:00Z,29.2533,-90.6633,2.003,9.41,1111122 
LUMCON,ioos:station:LUMCON:101:1,2019-04-01T22:45:00Z,29.2533,-90.6633,2.013,9.38,1111122 
LUMCON,ioos:station:LUMCON:101:1,2019-04-01T23:00:00Z,29.2533,-90.6633,2.009,9.48,1111122 
LUMCON,ioos:station:LUMCON:101:1,2019-04-01T23:15:00Z,29.2533,-90.6633,2.014,9.58,1111122 
LUMCON,ioos:station:LUMCON:101:1,2019-04-01T23:30:00Z,29.2533,-90.6633,2.022,9.55,1111122 
LUMCON,ioos:station:LUMCON:101:1,2019-04-01T23:45:00Z,29.2533,-90.6633,2.017,9.44,1111122 
LUMCON,ioos:station:LUMCON:101:1,2019-04-02T00:00:00Z,29.2533,-90.6633,2.023,9.63,1111122 
LUMCON,ioos:station:LUMCON:101:1,2019-04-02T00:15:00Z,29.2533,-90.6633,2.016,9.45,1111122 
LUMCON,ioos:station:LUMCON:101:1,2019-04-02T00:30:00Z,29.2533,-90.6633,2.015,9.39,1111122 
LUMCON,ioos:station:LUMCON:101:1,2019-04-02T00:45:00Z,29.2533,-90.6633,2.021,9.48,1111122 
LUMCON,ioos:station:LUMCON:101:1,2019-04-02T01:00:00Z,29.2533,-90.6633,2.029,9.64,1111122 
LUMCON,ioos:station:LUMCON:101:1,2019-04-02T01:15:00Z,29.2533,-90.6633,2.032,9.43,1111122 
LUMCON,ioos:station:LUMCON:101:1,2019-04-02T01:30:00Z,29.2533,-90.6633,2.025,9.66,1111122 
LUMCON,ioos:station:LUMCON:101:1,2019-04-02T01:45:00Z,29.2533,-90.6633,2.022,9.58,1111122 
LUMCON,ioos:station:LUMCON:101:1,2019-04-02T02:00:00Z,29.2533,-90.6633,2.02,9.37,1111122 
LUMCON,ioos:station:LUMCON:101:1,2019-04-02T02:15:00Z,29.2533,-90.6633,2.021,9.5,1111122 
LUMCON,ioos:station:LUMCON:101:1,2019-04-02T02:30:00Z,29.2533,-90.6633,2.012,9.43,1111122 
LUMCON,ioos:station:LUMCON:101:1,2019-04-02T02:45:00Z,29.2533,-90.6633,2.014,9.32,1111122 
LUMCON,ioos:station:LUMCON:101:1,2019-04-02T03:00:00Z,29.2533,-90.6633,2.02,9.3,1111122 
LUMCON,ioos:station:LUMCON:101:1,2019-04-02T03:15:00Z,29.2533,-90.6633,2.024,9.18,1111122 
LUMCON,ioos:station:LUMCON:101:1,2019-04-02T03:30:00Z,29.2533,-90.6633,2.026,8.79,1111122 
LUMCON,ioos:station:LUMCON:101:1,2019-04-02T03:45:00Z,29.2533,-90.6633,2.015,8.78,1111122 
LUMCON,ioos:station:LUMCON:101:1,2019-04-02T04:00:00Z,29.2533,-90.6633,1.995,8.97,1111122 
LUMCON,ioos:station:LUMCON:101:1,2019-04-02T04:15:00Z,29.2533,-90.6633,1.988,8.92,1111122 
LUMCON,ioos:station:LUMCON:101:1,2019-04-02T04:30:00Z,29.2533,-90.6633,1.993,8.92,1111122 
LUMCON,ioos:station:LUMCON:101:1,2019-04-02T04:45:00Z,29.2533,-90.6633,1.973,8.88,1111122 
LUMCON,ioos:station:LUMCON:101:1,2019-04-02T05:00:00Z,29.2533,-90.6633,1.971,8.85,1111122 
LUMCON,ioos:station:LUMCON:101:1,2019-04-02T05:15:00Z,29.2533,-90.6633,1.966,8.77,1111122 
LUMCON,ioos:station:LUMCON:101:1,2019-04-02T05:30:00Z,29.2533,-90.6633,1.963,8.67,1111122 
LUMCON,ioos:station:LUMCON:101:1,2019-04-02T05:45:00Z,29.2533,-90.6633,1.963,8.56,1111122 
LUMCON,ioos:station:LUMCON:101:1,2019-04-02T06:00:00Z,29.2533,-90.6633,1.957,8.51,1111122 
LUMCON,ioos:station:LUMCON:101:1,2019-04-02T06:15:00Z,29.2533,-90.6633,1.951,8.51,1111122 
LUMCON,ioos:station:LUMCON:101:1,2019-04-02T06:30:00Z,29.2533,-90.6633,1.953,8.38,1111122 
LUMCON,ioos:station:LUMCON:101:1,2019-04-02T06:45:00Z,29.2533,-90.6633,1.941,8.31,1111122 
LUMCON,ioos:station:LUMCON:101:1,2019-04-02T07:00:00Z,29.2533,-90.6633,1.933,8.11,1111122 
LUMCON,ioos:station:LUMCON:101:1,2019-04-02T07:15:00Z,29.2533,-90.6633,1.923,8.12,1111122 
LUMCON,ioos:station:LUMCON:101:1,2019-04-02T07:30:00Z,29.2533,-90.6633,1.904,8.03,1111122 
LUMCON,ioos:station:LUMCON:101:1,2019-04-02T07:45:00Z,29.2533,-90.6633,1.891,7.93,1111122 
LUMCON,ioos:station:LUMCON:101:1,2019-04-02T08:00:00Z,29.2533,-90.6633,1.88,7.8,1111122 
LUMCON,ioos:station:LUMCON:101:1,2019-04-02T08:15:00Z,29.2533,-90.6633,1.87,7.75,1111122 
LUMCON,ioos:station:LUMCON:101:1,2019-04-02T08:30:00Z,29.2533,-90.6633,1.857,7.7,1111122 
LUMCON,ioos:station:LUMCON:101:1,2019-04-02T08:45:00Z,29.2533,-90.6633,1.843,7.77,1111122 
LUMCON,ioos:station:LUMCON:101:1,2019-04-02T09:00:00Z,29.2533,-90.6633,1.832,7.81,1111122 
LUMCON,ioos:station:LUMCON:101:1,2019-04-02T09:15:00Z,29.2533,-90.6633,1.822,7.8,1111122 
LUMCON,ioos:station:LUMCON:101:1,2019-04-02T09:30:00Z,29.2533,-90.6633,1.815,7.79,1111122 
LUMCON,ioos:station:LUMCON:101:1,2019-04-02T09:45:00Z,29.2533,-90.6633,1.805,7.93,1111122 
LUMCON,ioos:station:LUMCON:101:1,2019-04-02T10:00:00Z,29.2533,-90.6633,1.798,7.83,1111122 
LUMCON,ioos:station:LUMCON:101:1,2019-04-02T10:15:00Z,29.2533,-90.6633,1.789,7.88,1111122 
LUMCON,ioos:station:LUMCON:101:1,2019-04-02T10:30:00Z,29.2533,-90.6633,1.781,7.89,1111122 
LUMCON,ioos:station:LUMCON:101:1,2019-04-02T10:45:00Z,29.2533,-90.6633,1.775,7.97,1111122 
LUMCON,ioos:station:LUMCON:101:1,2019-04-02T11:00:00Z,29.2533,-90.6633,1.761,7.93,1111122 
LUMCON,ioos:station:LUMCON:101:1,2019-04-02T11:15:00Z,29.2533,-90.6633,1.747,8.0,1111122 
LUMCON,ioos:station:LUMCON:101:1,2019-04-02T11:30:00Z,29.2533,-90.6633,1.731,8.01,1111122 
LUMCON,ioos:station:LUMCON:101:1,2019-04-02T11:45:00Z,29.2533,-90.6633,1.719,8.04,1111122 
LUMCON,ioos:station:LUMCON:101:1,2019-04-02T12:00:00Z,29.2533,-90.6633,1.709,8.01,1111122 
LUMCON,ioos:station:LUMCON:101:1,2019-04-02T12:15:00Z,29.2533,-90.6633,1.708,7.99,1111122 
LUMCON,ioos:station:LUMCON:101:1,2019-04-02T12:30:00Z,29.2533,-90.6633,1.711,7.97,1111122 
LUMCON,ioos:station:LUMCON:101:1,2019-04-02T12:45:00Z,29.2533,-90.6633,1.714,8.12,1111122 
LUMCON,ioos:station:LUMCON:101:1,2019-04-02T13:00:00Z,29.2533,-90.6633,1.712,8.22,1111122 
LUMCON,ioos:station:LUMCON:101:1,2019-04-02T13:15:00Z,29.2533,-90.6633,1.713,8.18,1111122 
LUMCON,ioos:station:LUMCON:101:1,2019-04-02T13:30:00Z,29.2533,-90.6633,1.706,8.24,1111122 
LUMCON,ioos:station:LUMCON:101:1,2019-04-02T13:45:00Z,29.2533,-90.6633,1.707,8.29,1111122 
LUMCON,ioos:station:LUMCON:101:1,2019-04-02T14:00:00Z,29.2533,-90.6633,1.717,8.22,1111122 
LUMCON,ioos:station:LUMCON:101:1,2019-04-02T14:15:00Z,29.2533,-90.6633,1.725,8.25,1111122 
LUMCON,ioos:station:LUMCON:101:1,2019-04-02T14:30:00Z,29.2533,-90.6633,1.725,8.27,1111122 
LUMCON,ioos:station:LUMCON:101:1,2019-04-02T14:45:00Z,29.2533,-90.6633,1.738,8.27,1111122 
LUMCON,ioos:station:LUMCON:101:1,2019-04-02T15:00:00Z,29.2533,-90.6633,1.742,8.22,1111122 
LUMCON,ioos:station:LUMCON:101:1,2019-04-02T15:15:00Z,29.2533,-90.6633,1.75,8.21,1111122 
LUMCON,ioos:station:LUMCON:101:1,2019-04-02T15:30:00Z,29.2533,-90.6633,1.759,8.22,1111122 
LUMCON,ioos:station:LUMCON:101:1,2019-04-02T15:45:00Z,29.2533,-90.6633,1.76,8.14,1111122 
LUMCON,ioos:station:LUMCON:101:1,2019-04-02T16:00:00Z,29.2533,-90.6633,1.768,8.39,1111122 
LUMCON,ioos:station:LUMCON:101:1,2019-04-02T16:15:00Z,29.2533,-90.6633,1.777,8.33,1111122 
LUMCON,ioos:station:LUMCON:101:1,2019-04-02T16:30:00Z,29.2533,-90.6633,1.792,8.62,1111122 
LUMCON,ioos:station:LUMCON:101:1,2019-04-02T16:45:00Z,29.2533,-90.6633,1.798,8.46,1111122 
LUMCON,ioos:station:LUMCON:101:1,2019-04-02T17:00:00Z,29.2533,-90.6633,1.804,8.75,1111122 
LUMCON,ioos:station:LUMCON:101:1,2019-04-02T17:15:00Z,29.2533,-90.6633,1.809,8.62,1111122 
LUMCON,ioos:station:LUMCON:101:1,2019-04-02T17:30:00Z,29.2533,-90.6633,1.816,8.6,1111122 
LUMCON,ioos:station:LUMCON:101:1,2019-04-02T17:45:00Z,29.2533,-90.6633,1.827,8.68,1111122 
LUMCON,ioos:station:LUMCON:101:1,2019-04-02T18:00:00Z,29.2533,-90.6633,1.837,8.7,1111122 
LUMCON,ioos:station:LUMCON:101:1,2019-04-02T18:15:00Z,29.2533,-90.6633,1.849,8.78,1111122 
LUMCON,ioos:station:LUMCON:101:1,2019-04-02T18:30:00Z,29.2533,-90.6633,1.86,8.74,1111122 
LUMCON,ioos:station:LUMCON:101:1,2019-04-02T18:45:00Z,29.2533,-90.6633,1.872,8.79,1111122 
LUMCON,ioos:station:LUMCON:101:1,2019-04-02T19:00:00Z,29.2533,-90.6633,1.882,8.75,1111122 
LUMCON,ioos:station:LUMCON:101:1,2019-04-02T19:15:00Z,29.2533,-90.6633,1.885,8.88,1111122 
LUMCON,ioos:station:LUMCON:101:1,2019-04-02T19:30:00Z,29.2533,-90.6633,1.891,9.0,1111122 
LUMCON,ioos:station:LUMCON:101:1,2019-04-02T19:45:00Z,29.2533,-90.6633,1.897,9.18,1111122 
LUMCON,ioos:station:LUMCON:101:1,2019-04-02T20:00:00Z,29.2533,-90.6633,1.884,9.15,1111122 
LUMCON,ioos:station:LUMCON:101:1,2019-04-02T20:15:00Z,29.2533,-90.6633,1.91,9.27,1111122 
LUMCON,ioos:station:LUMCON:101:1,2019-04-02T20:30:00Z,29.2533,-90.6633,1.92,9.02,1111122 
LUMCON,ioos:station:LUMCON:101:1,2019-04-02T20:45:00Z,29.2533,-90.6633,1.921,8.88,1111122 
LUMCON,ioos:station:LUMCON:101:1,2019-04-02T21:00:00Z,29.2533,-90.6633,1.93,9.15,1111122 
LUMCON,ioos:station:LUMCON:101:1,2019-04-02T21:15:00Z,29.2533,-90.6633,1.931,9.03,1111122 
LUMCON,ioos:station:LUMCON:101:1,2019-04-02T21:30:00Z,29.2533,-90.6633,1.934,9.15,1111122 
LUMCON,ioos:station:LUMCON:101:1,2019-04-02T21:45:00Z,29.2533,-90.6633,1.937,9.23,1111122 
LUMCON,ioos:station:LUMCON:101:1,2019-04-02T22:00:00Z,29.2533,-90.6633,1.942,9.06,1111122 
LUMCON,ioos:station:LUMCON:101:1,2019-04-02T22:15:00Z,29.2533,-90.6633,1.948,9.25,1111122 
LUMCON,ioos:station:LUMCON:101:1,2019-04-02T22:30:00Z,29.2533,-90.6633,1.948,8.94,1111122 
LUMCON,ioos:station:LUMCON:101:1,2019-04-02T22:45:00Z,29.2533,-90.6633,1.946,9.09,1111122 
LUMCON,ioos:station:LUMCON:101:1,2019-04-02T23:00:00Z,29.2533,-90.6633,1.945,9.24,1111122 
LUMCON,ioos:station:LUMCON:101:1,2019-04-02T23:15:00Z,29.2533,-90.6633,1.944,9.18,1111122 
LUMCON,ioos:station:LUMCON:101:1,2019-04-02T23:30:00Z,29.2533,-90.6633,1.948,9.28,1111122 
LUMCON,ioos:station:LUMCON:101:1,2019-04-02T23:45:00Z,29.2533,-90.6633,1.951,8.95,1111122 
LUMCON,ioos:station:LUMCON:101:1,2019-04-03T00:00:00Z,29.2533,-90.6633,1.954,8.78,1111122 
LUMCON,ioos:station:LUMCON:101:1,2019-04-03T00:15:00Z,29.2533,-90.6633,1.955,9.11,1111122 
LUMCON,ioos:station:LUMCON:101:1,2019-04-03T00:30:00Z,29.2533,-90.6633,1.957,9.11,1111122 
LUMCON,ioos:station:LUMCON:101:1,2019-04-03T00:45:00Z,29.2533,-90.6633,1.957,8.19,1111122 
LUMCON,ioos:station:LUMCON:101:1,2019-04-03T01:00:00Z,29.2533,-90.6633,1.958,8.64,1111122 
LUMCON,ioos:station:LUMCON:101:1,2019-04-03T01:15:00Z,29.2533,-90.6633,1.959,8.42,1111122 
LUMCON,ioos:station:LUMCON:101:1,2019-04-03T01:30:00Z,29.2533,-90.6633,1.957,8.42,1111122 
LUMCON,ioos:station:LUMCON:101:1,2019-04-03T01:45:00Z,29.2533,-90.6633,1.958,8.54,1111122 
LUMCON,ioos:station:LUMCON:101:1,2019-04-03T02:00:00Z,29.2533,-90.6633,1.963,8.84,1111122 
LUMCON,ioos:station:LUMCON:101:1,2019-04-03T02:15:00Z,29.2533,-90.6633,1.968,7.73,1111122 
LUMCON,ioos:station:LUMCON:101:1,2019-04-03T02:30:00Z,29.2533,-90.6633,1.971,8.22,1111122 
LUMCON,ioos:station:LUMCON:101:1,2019-04-03T02:45:00Z,29.2533,-90.6633,1.966,8.11,1111122 
LUMCON,ioos:station:LUMCON:101:1,2019-04-03T03:00:00Z,29.2533,-90.6633,1.966,8.03,1111122 
LUMCON,ioos:station:LUMCON:101:1,2019-04-03T03:15:00Z,29.2533,-90.6633,1.971,8.9,1111122 
LUMCON,ioos:station:LUMCON:101:1,2019-04-03T03:30:00Z,29.2533,-90.6633,1.971,8.79,1111122 
LUMCON,ioos:station:LUMCON:101:1,2019-04-03T03:45:00Z,29.2533,-90.6633,1.971,8.96,1111122 
LUMCON,ioos:station:LUMCON:101:1,2019-04-03T04:00:00Z,29.2533,-90.6633,1.971,9.04,1111122 
LUMCON,ioos:station:LUMCON:101:1,2019-04-03T04:15:00Z,29.2533,-90.6633,1.972,9.04,1111122 
LUMCON,ioos:station:LUMCON:101:1,2019-04-03T04:30:00Z,29.2533,-90.6633,1.976,8.9,1111122 
LUMCON,ioos:station:LUMCON:101:1,2019-04-03T04:45:00Z,29.2533,-90.6633,1.976,8.7,1111122 
LUMCON,ioos:station:LUMCON:101:1,2019-04-03T05:00:00Z,29.2533,-90.6633,1.977,8.68,1111122 
LUMCON,ioos:station:LUMCON:101:1,2019-04-03T05:15:00Z,29.2533,-90.6633,1.977,8.75,1111122 
LUMCON,ioos:station:LUMCON:101:1,2019-04-03T05:30:00Z,29.2533,-90.6633,1.979,8.51,1111122 
LUMCON,ioos:station:LUMCON:101:1,2019-04-03T05:45:00Z,29.2533,-90.6633,1.977,8.77,1111122 
LUMCON,ioos:station:LUMCON:101:1,2019-04-03T06:00:00Z,29.2533,-90.6633,1.975,8.95,1111122 
LUMCON,ioos:station:LUMCON:101:1,2019-04-03T06:15:00Z,29.2533,-90.6633,1.966,8.9,1111122 
LUMCON,ioos:station:LUMCON:101:1,2019-04-03T06:30:00Z,29.2533,-90.6633,1.961,8.7,1111122 
LUMCON,ioos:station:LUMCON:101:1,2019-04-03T06:45:00Z,29.2533,-90.6633,1.96,8.78,1111122 
LUMCON,ioos:station:LUMCON:101:1,2019-04-03T07:00:00Z,29.2533,-90.6633,1.958,8.76,1111122 
LUMCON,ioos:station:LUMCON:101:1,2019-04-03T07:15:00Z,29.2533,-90.6633,1.952,8.84,1111122 
LUMCON,ioos:station:LUMCON:101:1,2019-04-03T07:30:00Z,29.2533,-90.6633,1.947,8.67,1111122 
LUMCON,ioos:station:LUMCON:101:1,2019-04-03T07:45:00Z,29.2533,-90.6633,1.945,8.5,1111122 
LUMCON,ioos:station:LUMCON:101:1,2019-04-03T13:30:00Z,29.2533,-90.6633,1.846,7.58,1111122 
LUMCON,ioos:station:LUMCON:101:1,2019-04-03T13:45:00Z,29.2533,-90.6633,1.846,7.7,1111122 
LUMCON,ioos:station:LUMCON:101:1,2019-04-03T14:00:00Z,29.2533,-90.6633,1.846,7.76,1111122 
LUMCON,ioos:station:LUMCON:101:1,2019-04-03T14:15:00Z,29.2533,-90.6633,1.844,7.75,1111122 
LUMCON,ioos:station:LUMCON:101:1,2019-04-03T14:30:00Z,29.2533,-90.6633,1.841,7.75,1111122 
LUMCON,ioos:station:LUMCON:101:1,2019-04-03T14:45:00Z,29.2533,-90.6633,1.84,7.83,1111122 
LUMCON,ioos:station:LUMCON:101:1,2019-04-03T15:00:00Z,29.2533,-90.6633,1.832,7.87,1111122 
LUMCON,ioos:station:LUMCON:101:1,2019-04-03T15:15:00Z,29.2533,-90.6633,1.837,7.89,1111122 
LUMCON,ioos:station:LUMCON:101:1,2019-04-03T15:30:00Z,29.2533,-90.6633,1.839,7.69,1111122 
LUMCON,ioos:station:LUMCON:101:1,2019-04-03T15:45:00Z,29.2533,-90.6633,1.847,7.35,1111122 
LUMCON,ioos:station:LUMCON:101:1,2019-04-03T16:00:00Z,29.2533,-90.6633,1.85,7.81,1111122 
LUMCON,ioos:station:LUMCON:101:1,2019-04-03T16:15:00Z,29.2533,-90.6633,1.855,8.01,1111122 
LUMCON,ioos:station:LUMCON:101:1,2019-04-03T16:30:00Z,29.2533,-90.6633,1.869,8.05,1111122 
LUMCON,ioos:station:LUMCON:101:1,2019-04-03T16:45:00Z,29.2533,-90.6633,1.872,8.0,1111122 
LUMCON,ioos:station:LUMCON:101:1,2019-04-03T17:00:00Z,29.2533,-90.6633,1.875,8.09,1111122 
LUMCON,ioos:station:LUMCON:101:1,2019-04-03T17:15:00Z,29.2533,-90.6633,1.889,8.35,1111122 
LUMCON,ioos:station:LUMCON:101:1,2019-04-03T17:30:00Z,29.2533,-90.6633,1.895,8.38,1111122 
LUMCON,ioos:station:LUMCON:101:1,2019-04-03T17:45:00Z,29.2533,-90.6633,1.909,8.57,1111122 
LUMCON,ioos:station:LUMCON:101:1,2019-04-03T18:00:00Z,29.2533,-90.6633,1.917,8.62,1111122 
LUMCON,ioos:station:LUMCON:101:1,2019-04-03T18:15:00Z,29.2533,-90.6633,1.924,8.66,1111122 
LUMCON,ioos:station:LUMCON:101:1,2019-04-03T18:30:00Z,29.2533,-90.6633,1.925,8.73,1111122 
LUMCON,ioos:station:LUMCON:101:1,2019-04-03T18:45:00Z,29.2533,-90.6633,1.929,8.85,1111122 
LUMCON,ioos:station:LUMCON:101:1,2019-04-03T19:00:00Z,29.2533,-90.6633,1.932,8.99,1111122 
LUMCON,ioos:station:LUMCON:101:1,2019-04-03T19:15:00Z,29.2533,-90.6633,1.939,9.11,1111122 
LUMCON,ioos:station:LUMCON:101:1,2019-04-03T19:30:00Z,29.2533,-90.6633,1.947,9.24,1111122 
LUMCON,ioos:station:LUMCON:101:1,2019-04-03T19:45:00Z,29.2533,-90.6633,1.952,9.33,1111122 
LUMCON,ioos:station:LUMCON:101:1,2019-04-03T20:00:00Z,29.2533,-90.6633,1.958,9.4,1111122 
LUMCON,ioos:station:LUMCON:101:1,2019-04-03T20:15:00Z,29.2533,-90.6633,1.965,9.39,1111122 
LUMCON,ioos:station:LUMCON:101:1,2019-04-03T20:30:00Z,29.2533,-90.6633,1.967,9.28,1111122 
LUMCON,ioos:station:LUMCON:101:1,2019-04-03T20:45:00Z,29.2533,-90.6633,1.965,9.32,1111122 
LUMCON,ioos:station:LUMCON:101:1,2019-04-03T21:00:00Z,29.2533,-90.6633,1.966,9.49,1111122 
LUMCON,ioos:station:LUMCON:101:1,2019-04-03T21:15:00Z,29.2533,-90.6633,1.97,9.59,1111122 
LUMCON,ioos:station:LUMCON:101:1,2019-04-03T21:30:00Z,29.2533,-90.6633,1.976,9.66,1111122 
LUMCON,ioos:station:LUMCON:101:1,2019-04-03T21:45:00Z,29.2533,-90.6633,1.977,9.76,1111122 
LUMCON,ioos:station:LUMCON:101:1,2019-04-03T22:00:00Z,29.2533,-90.6633,1.979,9.84,1111122 
LUMCON,ioos:station:LUMCON:101:1,2019-04-03T22:15:00Z,29.2533,-90.6633,1.978,9.83,1111122 
LUMCON,ioos:station:LUMCON:101:1,2019-04-03T22:30:00Z,29.2533,-90.6633,1.982,9.95,1111122 
LUMCON,ioos:station:LUMCON:101:1,2019-04-03T22:45:00Z,29.2533,-90.6633,1.982,9.9,1111122 
LUMCON,ioos:station:LUMCON:101:1,2019-04-03T23:00:00Z,29.2533,-90.6633,1.981,9.89,1111122 
LUMCON,ioos:station:LUMCON:101:1,2019-04-03T23:15:00Z,29.2533,-90.6633,1.981,9.85,1111122 
LUMCON,ioos:station:LUMCON:101:1,2019-04-03T23:30:00Z,29.2533,-90.6633,1.98,9.78,1111122 
LUMCON,ioos:station:LUMCON:101:1,2019-04-03T23:45:00Z,29.2533,-90.6633,1.976,9.72,1111122 
LUMCON,ioos:station:LUMCON:101:1,2019-04-04T00:00:00Z,29.2533,-90.6633,1.978,9.55,1111122 
LUMCON,ioos:station:LUMCON:101:1,2019-04-04T00:15:00Z,29.2533,-90.6633,1.979,8.9,1111122 
LUMCON,ioos:station:LUMCON:101:1,2019-04-04T00:30:00Z,29.2533,-90.6633,1.988,9.77,1111122 
LUMCON,ioos:station:LUMCON:101:1,2019-04-04T00:45:00Z,29.2533,-90.6633,1.988,9.41,1111122 
LUMCON,ioos:station:LUMCON:101:1,2019-04-04T01:00:00Z,29.2533,-90.6633,1.991,9.5,1111122 
LUMCON,ioos:station:LUMCON:101:1,2019-04-04T01:15:00Z,29.2533,-90.6633,1.994,9.53,1111122 
LUMCON,ioos:station:LUMCON:101:1,2019-04-04T01:30:00Z,29.2533,-90.6633,1.993,9.58,1111122 
LUMCON,ioos:station:LUMCON:101:1,2019-04-04T01:45:00Z,29.2533,-90.6633,1.995,9.61,1111122 
LUMCON,ioos:station:LUMCON:101:1,2019-04-04T02:00:00Z,29.2533,-90.6633,1.994,9.7,1111122 
LUMCON,ioos:station:LUMCON:101:1,2019-04-04T02:15:00Z,29.2533,-90.6633,1.989,9.81,1111122 
LUMCON,ioos:station:LUMCON:101:1,2019-04-04T02:30:00Z,29.2533,-90.6633,1.987,9.67,1111122 
LUMCON,ioos:station:LUMCON:101:1,2019-04-04T02:45:00Z,29.2533,-90.6633,1.993,9.15,1111122 
LUMCON,ioos:station:LUMCON:101:1,2019-04-04T03:00:00Z,29.2533,-90.6633,1.998,9.28,1111122 
LUMCON,ioos:station:LUMCON:101:1,2019-04-04T03:15:00Z,29.2533,-90.6633,2.002,9.15,1111122 
LUMCON,ioos:station:LUMCON:101:1,2019-04-04T03:30:00Z,29.2533,-90.6633,2.0,9.18,1111122 
LUMCON,ioos:station:LUMCON:101:1,2019-04-04T03:45:00Z,29.2533,-90.6633,2.0,9.28,1111122 
LUMCON,ioos:station:LUMCON:101:1,2019-04-04T04:00:00Z,29.2533,-90.6633,2.01,9.33,1111122 
LUMCON,ioos:station:LUMCON:101:1,2019-04-04T04:15:00Z,29.2533,-90.6633,2.015,9.01,1111122 
LUMCON,ioos:station:LUMCON:101:1,2019-04-04T04:30:00Z,29.2533,-90.6633,2.019,9.23,1111122 
LUMCON,ioos:station:LUMCON:101:1,2019-04-04T04:45:00Z,29.2533,-90.6633,2.005,9.33,1111122 
LUMCON,ioos:station:LUMCON:101:1,2019-04-04T05:00:00Z,29.2533,-90.6633,2.018,9.31,1111122 
LUMCON,ioos:station:LUMCON:101:1,2019-04-04T05:15:00Z,29.2533,-90.6633,2.03,8.85,1111122 
LUMCON,ioos:station:LUMCON:101:1,2019-04-04T05:30:00Z,29.2533,-90.6633,2.036,9.03,1111122 
LUMCON,ioos:station:LUMCON:101:1,2019-04-04T05:45:00Z,29.2533,-90.6633,2.057,9.12,1111122 
LUMCON,ioos:station:LUMCON:101:1,2019-04-04T06:00:00Z,29.2533,-90.6633,2.058,9.01,1111122 
LUMCON,ioos:station:LUMCON:101:1,2019-04-04T06:15:00Z,29.2533,-90.6633,2.045,9.02,1111122 
LUMCON,ioos:station:LUMCON:101:1,2019-04-04T06:30:00Z,29.2533,-90.6633,2.04,8.68,1111122 
LUMCON,ioos:station:LUMCON:101:1,2019-04-04T06:45:00Z,29.2533,-90.6633,2.021,8.83,1111122 
LUMCON,ioos:station:LUMCON:101:1,2019-04-04T07:00:00Z,29.2533,-90.6633,2.003,8.99,1111122 
LUMCON,ioos:station:LUMCON:101:1,2019-04-04T07:15:00Z,29.2533,-90.6633,2.005,8.88,1111122 
LUMCON,ioos:station:LUMCON:101:1,2019-04-04T07:30:00Z,29.2533,-90.6633,2.004,8.77,1111122 
LUMCON,ioos:station:LUMCON:101:1,2019-04-04T07:45:00Z,29.2533,-90.6633,2.006,8.68,1111122 
LUMCON,ioos:station:LUMCON:101:1,2019-04-04T08:00:00Z,29.2533,-90.6633,2.018,8.28,1111122 
LUMCON,ioos:station:LUMCON:101:1,2019-04-04T08:15:00Z,29.2533,-90.6633,2.024,8.49,1111122 